User: anonymous   Login
Location: Eaton Estates
(41.3089°N, 82.0057°W)
Time: 22:53:21
(UTC+00:00)
Language:

CUBESAT XI-V - Orbit

View from above orbital plane
View from above orbital plane
View from above satellite
View from above satellite

Ground track
Ground track

The orbit data is extracted from the following two-line orbital elements,

1 28895U 05043F   24176.60309806  .00001781  00000-0  32060-3 0  9997
2 28895  98.2027 312.4407 0014970 338.1656  21.8909 14.67769751995540
Epoch (UTC): 24 June 2024 14:28:27
Eccentricity: 0.0014970
inclination: 98.2027°
perigee height: 657 km
apogee height: 679 km
right ascension of ascending node: 312.4407°
argument of perigee: 338.1656°
revolutions per day: 14.67769751
mean anomaly at epoch: 21.8909°
orbit number at epoch: 99554

The dashed part of the orbit path shows where the satellite is in the earth's shadow,  

DLR